owner,sensor,date,latitude,longitude,air_temperature,qcFlag 
COMPS,ioos:station:USF.COMPS:C10:1,2016-04-01T00:05:00Z,27.1690,-82.9260,22.73,1111122 
COMPS,ioos:station:USF.COMPS:C10:1,2016-04-01T00:35:00Z,27.1690,-82.9260,22.69,1111122 
COMPS,ioos:station:USF.COMPS:C10:1,2016-04-01T01:05:00Z,27.1690,-82.9260,22.68,1111122 
COMPS,ioos:station:USF.COMPS:C10:1,2016-04-01T01:35:00Z,27.1690,-82.9260,22.67,1111122 
COMPS,ioos:station:USF.COMPS:C10:1,2016-04-01T02:05:00Z,27.1690,-82.9260,22.66,1111122 
COMPS,ioos:station:USF.COMPS:C10:1,2016-04-01T02:35:00Z,27.1690,-82.9260,22.69,1111122 
COMPS,ioos:station:USF.COMPS:C10:1,2016-04-01T03:05:00Z,27.1690,-82.9260,22.75,1111122 
COMPS,ioos:station:USF.COMPS:C10:1,2016-04-01T03:35:00Z,27.1690,-82.9260,22.82,1111122 
COMPS,ioos:station:USF.COMPS:C10:1,2016-04-01T04:05:00Z,27.1690,-82.9260,22.71,1111122 
COMPS,ioos:station:USF.COMPS:C10:1,2016-04-01T04:35:00Z,27.1690,-82.9260,22.6,1111122 
COMPS,ioos:station:USF.COMPS:C10:1,2016-04-01T05:05:00Z,27.1690,-82.9260,22.59,1111122 
COMPS,ioos:station:USF.COMPS:C10:1,2016-04-01T05:35:00Z,27.1690,-82.9260,22.65,1111122 
COMPS,ioos:station:USF.COMPS:C10:1,2016-04-01T06:05:00Z,27.1690,-82.9260,22.68,1111122 
COMPS,ioos:station:USF.COMPS:C10:1,2016-04-01T06:35:00Z,27.1690,-82.9260,22.69,1111122 
COMPS,ioos:station:USF.COMPS:C10:1,2016-04-01T07:05:00Z,27.1690,-82.9260,22.68,1111122 
COMPS,ioos:station:USF.COMPS:C10:1,2016-04-01T07:35:00Z,27.1690,-82.9260,22.7,1111122 
COMPS,ioos:station:USF.COMPS:C10:1,2016-04-01T08:05:00Z,27.1690,-82.9260,22.64,1111122 
COMPS,ioos:station:USF.COMPS:C10:1,2016-04-01T08:35:00Z,27.1690,-82.9260,22.62,1111122 
COMPS,ioos:station:USF.COMPS:C10:1,2016-04-01T09:05:00Z,27.1690,-82.9260,22.55,1111122 
COMPS,ioos:station:USF.COMPS:C10:1,2016-04-01T09:35:00Z,27.1690,-82.9260,22.64,1111122 
COMPS,ioos:station:USF.COMPS:C10:1,2016-04-01T10:05:00Z,27.1690,-82.9260,22.63,1111122 
COMPS,ioos:station:USF.COMPS:C10:1,2016-04-01T10:35:00Z,27.1690,-82.9260,22.67,1111122 
COMPS,ioos:station:USF.COMPS:C10:1,2016-04-01T11:05:00Z,27.1690,-82.9260,22.68,1111122 
COMPS,ioos:station:USF.COMPS:C10:1,2016-04-01T11:35:00Z,27.1690,-82.9260,22.63,1111122 
COMPS,ioos:station:USF.COMPS:C10:1,2016-04-01T12:05:00Z,27.1690,-82.9260,22.64,1111122 
COMPS,ioos:station:USF.COMPS:C10:1,2016-04-01T12:35:00Z,27.1690,-82.9260,22.72,1111122 
COMPS,ioos:station:USF.COMPS:C10:1,2016-04-01T13:05:00Z,27.1690,-82.9260,22.74,1111122 
COMPS,ioos:station:USF.COMPS:C10:1,2016-04-01T13:35:00Z,27.1690,-82.9260,22.78,1111122 
COMPS,ioos:station:USF.COMPS:C10:1,2016-04-01T14:05:00Z,27.1690,-82.9260,22.83,1111122 
COMPS,ioos:station:USF.COMPS:C10:1,2016-04-01T14:35:00Z,27.1690,-82.9260,22.9,1111122 
COMPS,ioos:station:USF.COMPS:C10:1,2016-04-01T15:05:00Z,27.1690,-82.9260,23.01,1111122 
COMPS,ioos:station:USF.COMPS:C10:1,2016-04-01T15:35:00Z,27.1690,-82.9260,23.07,1111122 
COMPS,ioos:station:USF.COMPS:C10:1,2016-04-01T16:05:00Z,27.1690,-82.9260,23.13,1111122 
COMPS,ioos:station:USF.COMPS:C10:1,2016-04-01T16:35:00Z,27.1690,-82.9260,23.17,1111122 
COMPS,ioos:station:USF.COMPS:C10:1,2016-04-01T17:05:00Z,27.1690,-82.9260,23.19,1111122 
COMPS,ioos:station:USF.COMPS:C10:1,2016-04-01T17:35:00Z,27.1690,-82.9260,23.23,1111122 
COMPS,ioos:station:USF.COMPS:C10:1,2016-04-01T18:05:00Z,27.1690,-82.9260,23.42,1111122 
COMPS,ioos:station:USF.COMPS:C10:1,2016-04-01T18:35:00Z,27.1690,-82.9260,23.46,1111122 
COMPS,ioos:station:USF.COMPS:C10:1,2016-04-01T19:05:00Z,27.1690,-82.9260,23.55,1111122 
COMPS,ioos:station:USF.COMPS:C10:1,2016-04-01T19:35:00Z,27.1690,-82.9260,23.65,1111122 
COMPS,ioos:station:USF.COMPS:C10:1,2016-04-01T20:05:00Z,27.1690,-82.9260,23.73,1111122 
COMPS,ioos:station:USF.COMPS:C10:1,2016-04-01T20:35:00Z,27.1690,-82.9260,23.74,1111122 
COMPS,ioos:station:USF.COMPS:C10:1,2016-04-01T21:05:00Z,27.1690,-82.9260,23.87,1111122 
COMPS,ioos:station:USF.COMPS:C10:1,2016-04-01T21:35:00Z,27.1690,-82.9260,23.89,1111122 
COMPS,ioos:station:USF.COMPS:C10:1,2016-04-01T22:05:00Z,27.1690,-82.9260,23.96,1111122 
COMPS,ioos:station:USF.COMPS:C10:1,2016-04-01T22:35:00Z,27.1690,-82.9260,23.84,1111122 
COMPS,ioos:station:USF.COMPS:C10:1,2016-04-01T23:05:00Z,27.1690,-82.9260,23.69,1111122 
COMPS,ioos:station:USF.COMPS:C10:1,2016-04-01T23:35:00Z,27.1690,-82.9260,23.45,1111122 
COMPS,ioos:station:USF.COMPS:C10:1,2016-04-02T00:05:00Z,27.1690,-82.9260,23.32,1111122 
COMPS,ioos:station:USF.COMPS:C10:1,2016-04-02T00:35:00Z,27.1690,-82.9260,23.32,1111122 
COMPS,ioos:station:USF.COMPS:C10:1,2016-04-02T01:05:00Z,27.1690,-82.9260,23.23,1111122 
COMPS,ioos:station:USF.COMPS:C10:1,2016-04-02T01:35:00Z,27.1690,-82.9260,23.22,1111122 
COMPS,ioos:station:USF.COMPS:C10:1,2016-04-02T02:05:00Z,27.1690,-82.9260,23.19,1111122 
COMPS,ioos:station:USF.COMPS:C10:1,2016-04-02T02:35:00Z,27.1690,-82.9260,23.2,1111122 
COMPS,ioos:station:USF.COMPS:C10:1,2016-04-02T03:05:00Z,27.1690,-82.9260,23.25,1111122 
COMPS,ioos:station:USF.COMPS:C10:1,2016-04-02T03:35:00Z,27.1690,-82.9260,23.26,1111122 
COMPS,ioos:station:USF.COMPS:C10:1,2016-04-02T04:05:00Z,27.1690,-82.9260,23.29,1111122 
COMPS,ioos:station:USF.COMPS:C10:1,2016-04-02T04:35:00Z,27.1690,-82.9260,23.39,1111122 
COMPS,ioos:station:USF.COMPS:C10:1,2016-04-02T05:05:00Z,27.1690,-82.9260,23.6,1111122 
COMPS,ioos:station:USF.COMPS:C10:1,2016-04-02T05:35:00Z,27.1690,-82.9260,23.66,1111122 
COMPS,ioos:station:USF.COMPS:C10:1,2016-04-02T06:05:00Z,27.1690,-82.9260,23.67,1111122 
COMPS,ioos:station:USF.COMPS:C10:1,2016-04-02T06:35:00Z,27.1690,-82.9260,23.55,1111122 
COMPS,ioos:station:USF.COMPS:C10:1,2016-04-02T07:05:00Z,27.1690,-82.9260,23.54,1111122 
COMPS,ioos:station:USF.COMPS:C10:1,2016-04-02T07:35:00Z,27.1690,-82.9260,23.55,1111122 
COMPS,ioos:station:USF.COMPS:C10:1,2016-04-02T08:05:00Z,27.1690,-82.9260,23.51,1111122 
COMPS,ioos:station:USF.COMPS:C10:1,2016-04-02T08:35:00Z,27.1690,-82.9260,23.5,1111122 
COMPS,ioos:station:USF.COMPS:C10:1,2016-04-02T09:05:00Z,27.1690,-82.9260,23.48,1111122 
COMPS,ioos:station:USF.COMPS:C10:1,2016-04-02T09:35:00Z,27.1690,-82.9260,23.49,1111122 
COMPS,ioos:station:USF.COMPS:C10:1,2016-04-02T10:05:00Z,27.1690,-82.9260,23.4,1111122 
COMPS,ioos:station:USF.COMPS:C10:1,2016-04-02T10:35:00Z,27.1690,-82.9260,23.35,1111122 
COMPS,ioos:station:USF.COMPS:C10:1,2016-04-02T11:05:00Z,27.1690,-82.9260,23.24,1111122 
COMPS,ioos:station:USF.COMPS:C10:1,2016-04-02T11:35:00Z,27.1690,-82.9260,23.11,1111122 
COMPS,ioos:station:USF.COMPS:C10:1,2016-04-02T12:05:00Z,27.1690,-82.9260,23.09,1111122 
COMPS,ioos:station:USF.COMPS:C10:1,2016-04-02T12:35:00Z,27.1690,-82.9260,23.08,1111122 
COMPS,ioos:station:USF.COMPS:C10:1,2016-04-02T13:05:00Z,27.1690,-82.9260,23.09,1111122 
COMPS,ioos:station:USF.COMPS:C10:1,2016-04-02T13:35:00Z,27.1690,-82.9260,23.01,1111122 
COMPS,ioos:station:USF.COMPS:C10:1,2016-04-02T14:05:00Z,27.1690,-82.9260,23.1,1111122 
COMPS,ioos:station:USF.COMPS:C10:1,2016-04-02T14:35:00Z,27.1690,-82.9260,23.11,1111122 
COMPS,ioos:station:USF.COMPS:C10:1,2016-04-02T15:05:00Z,27.1690,-82.9260,23.23,1111122 
COMPS,ioos:station:USF.COMPS:C10:1,2016-04-02T15:35:00Z,27.1690,-82.9260,23.26,1111122 
COMPS,ioos:station:USF.COMPS:C10:1,2016-04-02T16:05:00Z,27.1690,-82.9260,23.3,1111122 
COMPS,ioos:station:USF.COMPS:C10:1,2016-04-02T16:35:00Z,27.1690,-82.9260,23.25,1111122 
COMPS,ioos:station:USF.COMPS:C10:1,2016-04-02T17:05:00Z,27.1690,-82.9260,23.38,1111122 
COMPS,ioos:station:USF.COMPS:C10:1,2016-04-02T17:35:00Z,27.1690,-82.9260,23.36,1111122 
COMPS,ioos:station:USF.COMPS:C10:1,2016-04-02T18:05:00Z,27.1690,-82.9260,23.24,1111122 
COMPS,ioos:station:USF.COMPS:C10:1,2016-04-02T18:35:00Z,27.1690,-82.9260,23.12,1111122 
COMPS,ioos:station:USF.COMPS:C10:1,2016-04-02T19:05:00Z,27.1690,-82.9260,21.79,1111122 
COMPS,ioos:station:USF.COMPS:C10:1,2016-04-02T19:35:00Z,27.1690,-82.9260,21.84,1111122 
COMPS,ioos:station:USF.COMPS:C10:1,2016-04-02T20:05:00Z,27.1690,-82.9260,22.11,1111122 
COMPS,ioos:station:USF.COMPS:C10:1,2016-04-02T20:35:00Z,27.1690,-82.9260,22.18,1111122 
COMPS,ioos:station:USF.COMPS:C10:1,2016-04-02T21:05:00Z,27.1690,-82.9260,22.19,1111122 
COMPS,ioos:station:USF.COMPS:C10:1,2016-04-02T21:35:00Z,27.1690,-82.9260,22.33,1111122 
COMPS,ioos:station:USF.COMPS:C10:1,2016-04-02T22:05:00Z,27.1690,-82.9260,22.29,1111122 
COMPS,ioos:station:USF.COMPS:C10:1,2016-04-02T22:35:00Z,27.1690,-82.9260,22.03,1111122 
COMPS,ioos:station:USF.COMPS:C10:1,2016-04-03T00:05:00Z,27.1690,-82.9260,21.43,1111122 
COMPS,ioos:station:USF.COMPS:C10:1,2016-04-03T00:35:00Z,27.1690,-82.9260,21.46,1111122 
COMPS,ioos:station:USF.COMPS:C10:1,2016-04-03T03:05:00Z,27.1690,-82.9260,21.42,1111122 
COMPS,ioos:station:USF.COMPS:C10:1,2016-04-03T03:35:00Z,27.1690,-82.9260,21.33,1111122 
COMPS,ioos:station:USF.COMPS:C10:1,2016-04-03T04:05:00Z,27.1690,-82.9260,21.37,1111122 
COMPS,ioos:station:USF.COMPS:C10:1,2016-04-03T04:35:00Z,27.1690,-82.9260,21.43,1111122 
COMPS,ioos:station:USF.COMPS:C10:1,2016-04-03T05:05:00Z,27.1690,-82.9260,21.42,1111122 
COMPS,ioos:station:USF.COMPS:C10:1,2016-04-03T05:35:00Z,27.1690,-82.9260,21.47,1111122 
COMPS,ioos:station:USF.COMPS:C10:1,2016-04-03T13:05:00Z,27.1690,-82.9260,19.56,1111122 
COMPS,ioos:station:USF.COMPS:C10:1,2016-04-03T13:35:00Z,27.1690,-82.9260,19.32,1111122 
COMPS,ioos:station:USF.COMPS:C10:1,2016-04-03T19:05:00Z,27.1690,-82.9260,19.99,1111122 
COMPS,ioos:station:USF.COMPS:C10:1,2016-04-03T19:35:00Z,27.1690,-82.9260,20.05,1111122 
COMPS,ioos:station:USF.COMPS:C10:1,2016-04-03T20:05:00Z,27.1690,-82.9260,20.19,1111122 
COMPS,ioos:station:USF.COMPS:C10:1,2016-04-03T20:35:00Z,27.1690,-82.9260,20.22,1111122 
COMPS,ioos:station:USF.COMPS:C10:1,2016-04-03T23:05:00Z,27.1690,-82.9260,20.32,1111122 
COMPS,ioos:station:USF.COMPS:C10:1,2016-04-03T23:35:00Z,27.1690,-82.9260,20.48,1111122 
COMPS,ioos:station:USF.COMPS:C10:1,2016-04-04T00:05:00Z,27.1690,-82.9260,20.37,1111122 
COMPS,ioos:station:USF.COMPS:C10:1,2016-04-04T00:35:00Z,27.1690,-82.9260,20.4,1111122 
COMPS,ioos:station:USF.COMPS:C10:1,2016-04-04T04:05:00Z,27.1690,-82.9260,20.41,1111122 
COMPS,ioos:station:USF.COMPS:C10:1,2016-04-04T04:35:00Z,27.1690,-82.9260,20.43,1111122 
COMPS,ioos:station:USF.COMPS:C10:1,2016-04-04T06:05:00Z,27.1690,-82.9260,20.67,1111122 
COMPS,ioos:station:USF.COMPS:C10:1,2016-04-04T06:35:00Z,27.1690,-82.9260,20.57,1111122 
COMPS,ioos:station:USF.COMPS:C10:1,2016-04-04T07:05:00Z,27.1690,-82.9260,20.57,1111122 
COMPS,ioos:station:USF.COMPS:C10:1,2016-04-04T07:35:00Z,27.1690,-82.9260,20.2,1111122 
COMPS,ioos:station:USF.COMPS:C10:1,2016-04-04T08:05:00Z,27.1690,-82.9260,19.78,1111122 
COMPS,ioos:station:USF.COMPS:C10:1,2016-04-04T08:35:00Z,27.1690,-82.9260,19.97,1111122 
COMPS,ioos:station:USF.COMPS:C10:1,2016-04-04T09:05:00Z,27.1690,-82.9260,19.96,1111122 
COMPS,ioos:station:USF.COMPS:C10:1,2016-04-04T09:35:00Z,27.1690,-82.9260,19.9,1111122 
COMPS,ioos:station:USF.COMPS:C10:1,2016-04-04T10:05:00Z,27.1690,-82.9260,19.9,1111122 
COMPS,ioos:station:USF.COMPS:C10:1,2016-04-04T10:35:00Z,27.1690,-82.9260,19.96,1111122 
COMPS,ioos:station:USF.COMPS:C10:1,2016-04-04T11:05:00Z,27.1690,-82.9260,20.05,1111122 
COMPS,ioos:station:USF.COMPS:C10:1,2016-04-04T11:35:00Z,27.1690,-82.9260,20.25,1111122 
COMPS,ioos:station:USF.COMPS:C10:1,2016-04-04T12:05:00Z,27.1690,-82.9260,20.16,1111122 
COMPS,ioos:station:USF.COMPS:C10:1,2016-04-04T12:35:00Z,27.1690,-82.9260,20.14,1111122 
COMPS,ioos:station:USF.COMPS:C10:1,2016-04-04T13:05:00Z,27.1690,-82.9260,20.15,1111122 
COMPS,ioos:station:USF.COMPS:C10:1,2016-04-04T13:35:00Z,27.1690,-82.9260,20.46,1111122 
COMPS,ioos:station:USF.COMPS:C10:1,2016-04-04T15:05:00Z,27.1690,-82.9260,20.97,1111122 
COMPS,ioos:station:USF.COMPS:C10:1,2016-04-04T15:35:00Z,27.1690,-82.9260,21.2,1111122 
COMPS,ioos:station:USF.COMPS:C10:1,2016-04-04T16:05:00Z,27.1690,-82.9260,21.34,1111122 
COMPS,ioos:station:USF.COMPS:C10:1,2016-04-04T16:35:00Z,27.1690,-82.9260,21.18,1111122 
COMPS,ioos:station:USF.COMPS:C10:1,2016-04-04T17:05:00Z,27.1690,-82.9260,21.17,1111122 
COMPS,ioos:station:USF.COMPS:C10:1,2016-04-04T17:35:00Z,27.1690,-82.9260,21.23,1111122 
COMPS,ioos:station:USF.COMPS:C10:1,2016-04-04T19:05:00Z,27.1690,-82.9260,21.36,1111122 
COMPS,ioos:station:USF.COMPS:C10:1,2016-04-04T19:35:00Z,27.1690,-82.9260,21.34,1111122 
COMPS,ioos:station:USF.COMPS:C10:1,2016-04-04T20:05:00Z,27.1690,-82.9260,21.37,1111122 
COMPS,ioos:station:USF.COMPS:C10:1,2016-04-04T20:35:00Z,27.1690,-82.9260,21.31,1111122 
COMPS,ioos:station:USF.COMPS:C10:1,2016-04-04T21:05:00Z,27.1690,-82.9260,21.29,1111122 
COMPS,ioos:station:USF.COMPS:C10:1,2016-04-04T21:35:00Z,27.1690,-82.9260,21.33,1111122 
COMPS,ioos:station:USF.COMPS:C10:1,2016-04-04T22:05:00Z,27.1690,-82.9260,21.29,1111122 
COMPS,ioos:station:USF.COMPS:C10:1,2016-04-04T22:35:00Z,27.1690,-82.9260,21.28,1111122 
COMPS,ioos:station:USF.COMPS:C10:1,2016-04-04T23:05:00Z,27.1690,-82.9260,21.34,1111122 
COMPS,ioos:station:USF.COMPS:C10:1,2016-04-04T23:35:00Z,27.1690,-82.9260,21.15,1111122 
COMPS,ioos:station:USF.COMPS:C10:1,2016-04-05T00:05:00Z,27.1690,-82.9260,21.01,1111122 
COMPS,ioos:station:USF.COMPS:C10:1,2016-04-05T00:35:00Z,27.1690,-82.9260,21.06,1111122 
COMPS,ioos:station:USF.COMPS:C10:1,2016-04-05T01:05:00Z,27.1690,-82.9260,21.23,1111122 
COMPS,ioos:station:USF.COMPS:C10:1,2016-04-05T01:35:00Z,27.1690,-82.9260,21.17,1111122 
COMPS,ioos:station:USF.COMPS:C10:1,2016-04-05T02:05:00Z,27.1690,-82.9260,21.15,1111122 
COMPS,ioos:station:USF.COMPS:C10:1,2016-04-05T02:35:00Z,27.1690,-82.9260,21.21,1111122 
COMPS,ioos:station:USF.COMPS:C10:1,2016-04-05T03:05:00Z,27.1690,-82.9260,21.16,1111122 
COMPS,ioos:station:USF.COMPS:C10:1,2016-04-05T03:35:00Z,27.1690,-82.9260,21.24,1111122 
COMPS,ioos:station:USF.COMPS:C10:1,2016-04-05T04:05:00Z,27.1690,-82.9260,21.22,1111122 
COMPS,ioos:station:USF.COMPS:C10:1,2016-04-05T04:35:00Z,27.1690,-82.9260,21.32,1111122 
COMPS,ioos:station:USF.COMPS:C10:1,2016-04-05T05:05:00Z,27.1690,-82.9260,21.61,1111122 
COMPS,ioos:station:USF.COMPS:C10:1,2016-04-05T05:35:00Z,27.1690,-82.9260,21.43,1111122 
COMPS,ioos:station:USF.COMPS:C10:1,2016-04-05T07:05:00Z,27.1690,-82.9260,21.15,1111122 
COMPS,ioos:station:USF.COMPS:C10:1,2016-04-05T07:35:00Z,27.1690,-82.9260,21.13,1111122 
COMPS,ioos:station:USF.COMPS:C10:1,2016-04-05T08:05:00Z,27.1690,-82.9260,21.14,1111122 
COMPS,ioos:station:USF.COMPS:C10:1,2016-04-05T08:35:00Z,27.1690,-82.9260,20.96,1111122 
COMPS,ioos:station:USF.COMPS:C10:1,2016-04-05T09:05:00Z,27.1690,-82.9260,20.99,1111122 
COMPS,ioos:station:USF.COMPS:C10:1,2016-04-05T09:35:00Z,27.1690,-82.9260,21.02,1111122 
COMPS,ioos:station:USF.COMPS:C10:1,2016-04-05T10:05:00Z,27.1690,-82.9260,20.96,1111122 
COMPS,ioos:station:USF.COMPS:C10:1,2016-04-05T10:35:00Z,27.1690,-82.9260,21.01,1111122 
COMPS,ioos:station:USF.COMPS:C10:1,2016-04-05T12:05:00Z,27.1690,-82.9260,21.19,1111122 
COMPS,ioos:station:USF.COMPS:C10:1,2016-04-05T12:35:00Z,27.1690,-82.9260,21.47,1111122 
COMPS,ioos:station:USF.COMPS:C10:1,2016-04-05T15:05:00Z,27.1690,-82.9260,21.48,1111122 
COMPS,ioos:station:USF.COMPS:C10:1,2016-04-05T15:35:00Z,27.1690,-82.9260,21.45,1111122 
COMPS,ioos:station:USF.COMPS:C10:1,2016-04-05T18:05:00Z,27.1690,-82.9260,21.88,1111122 
COMPS,ioos:station:USF.COMPS:C10:1,2016-04-05T18:35:00Z,27.1690,-82.9260,21.72,1111122 
COMPS,ioos:station:USF.COMPS:C10:1,2016-04-05T19:05:00Z,27.1690,-82.9260,21.63,1111122 
COMPS,ioos:station:USF.COMPS:C10:1,2016-04-05T19:35:00Z,27.1690,-82.9260,21.6,1111122 
COMPS,ioos:station:USF.COMPS:C10:1,2016-04-05T20:05:00Z,27.1690,-82.9260,21.83,1111122 
COMPS,ioos:station:USF.COMPS:C10:1,2016-04-05T20:35:00Z,27.1690,-82.9260,21.91,1111122 
COMPS,ioos:station:USF.COMPS:C10:1,2016-04-05T21:05:00Z,27.1690,-82.9260,21.93,1111122 
COMPS,ioos:station:USF.COMPS:C10:1,2016-04-05T21:35:00Z,27.1690,-82.9260,21.93,1111122 
COMPS,ioos:station:USF.COMPS:C10:1,2016-04-05T22:05:00Z,27.1690,-82.9260,22.02,1111122 
COMPS,ioos:station:USF.COMPS:C10:1,2016-04-05T22:35:00Z,27.1690,-82.9260,22.28,1111122 
COMPS,ioos:station:USF.COMPS:C10:1,2016-04-05T23:05:00Z,27.1690,-82.9260,22.43,1111122 
COMPS,ioos:station:USF.COMPS:C10:1,2016-04-05T23:35:00Z,27.1690,-82.9260,22.13,1111122 
COMPS,ioos:station:USF.COMPS:C10:1,2016-04-06T00:05:00Z,27.1690,-82.9260,22.05,1111122 
COMPS,ioos:station:USF.COMPS:C10:1,2016-04-06T00:35:00Z,27.1690,-82.9260,22.02,1111122 
COMPS,ioos:station:USF.COMPS:C10:1,2016-04-06T01:05:00Z,27.1690,-82.9260,21.85,1111122 
COMPS,ioos:station:USF.COMPS:C10:1,2016-04-06T01:35:00Z,27.1690,-82.9260,21.86,1111122 
COMPS,ioos:station:USF.COMPS:C10:1,2016-04-06T02:05:00Z,27.1690,-82.9260,21.89,1111122 
COMPS,ioos:station:USF.COMPS:C10:1,2016-04-06T02:35:00Z,27.1690,-82.9260,21.88,1111122 
COMPS,ioos:station:USF.COMPS:C10:1,2016-04-06T03:05:00Z,27.1690,-82.9260,21.96,1111122 
COMPS,ioos:station:USF.COMPS:C10:1,2016-04-06T03:35:00Z,27.1690,-82.9260,21.93,1111122 
COMPS,ioos:station:USF.COMPS:C10:1,2016-04-06T05:05:00Z,27.1690,-82.9260,22.37,1111122 
COMPS,ioos:station:USF.COMPS:C10:1,2016-04-06T05:35:00Z,27.1690,-82.9260,22.05,1111122 
COMPS,ioos:station:USF.COMPS:C10:1,2016-04-06T06:05:00Z,27.1690,-82.9260,21.95,1111122 
COMPS,ioos:station:USF.COMPS:C10:1,2016-04-06T06:35:00Z,27.1690,-82.9260,21.62,1111122 
COMPS,ioos:station:USF.COMPS:C10:1,2016-04-06T07:05:00Z,27.1690,-82.9260,21.5,1111122 
COMPS,ioos:station:USF.COMPS:C10:1,2016-04-06T07:35:00Z,27.1690,-82.9260,21.41,1111122 
COMPS,ioos:station:USF.COMPS:C10:1,2016-04-06T08:05:00Z,27.1690,-82.9260,21.19,1111122 
COMPS,ioos:station:USF.COMPS:C10:1,2016-04-06T08:35:00Z,27.1690,-82.9260,20.99,1111122 
COMPS,ioos:station:USF.COMPS:C10:1,2016-04-06T09:05:00Z,27.1690,-82.9260,20.96,1111122 
COMPS,ioos:station:USF.COMPS:C10:1,2016-04-06T09:35:00Z,27.1690,-82.9260,21.0,1111122 
COMPS,ioos:station:USF.COMPS:C10:1,2016-04-06T10:05:00Z,27.1690,-82.9260,21.07,1111122 
COMPS,ioos:station:USF.COMPS:C10:1,2016-04-06T10:35:00Z,27.1690,-82.9260,21.13,1111122 
COMPS,ioos:station:USF.COMPS:C10:1,2016-04-06T11:05:00Z,27.1690,-82.9260,21.1,1111122 
COMPS,ioos:station:USF.COMPS:C10:1,2016-04-06T11:35:00Z,27.1690,-82.9260,20.97,1111122 
COMPS,ioos:station:USF.COMPS:C10:1,2016-04-06T12:05:00Z,27.1690,-82.9260,21.0,1111122 
COMPS,ioos:station:USF.COMPS:C10:1,2016-04-06T12:35:00Z,27.1690,-82.9260,21.05,1111122 
COMPS,ioos:station:USF.COMPS:C10:1,2016-04-06T13:05:00Z,27.1690,-82.9260,20.98,1111122 
COMPS,ioos:station:USF.COMPS:C10:1,2016-04-06T13:35:00Z,27.1690,-82.9260,20.98,1111122 
COMPS,ioos:station:USF.COMPS:C10:1,2016-04-06T14:05:00Z,27.1690,-82.9260,20.94,1111122 
COMPS,ioos:station:USF.COMPS:C10:1,2016-04-06T14:35:00Z,27.1690,-82.9260,21.14,1111122 
COMPS,ioos:station:USF.COMPS:C10:1,2016-04-06T15:05:00Z,27.1690,-82.9260,21.55,1111122 
COMPS,ioos:station:USF.COMPS:C10:1,2016-04-06T15:35:00Z,27.1690,-82.9260,22.03,1111122 
COMPS,ioos:station:USF.COMPS:C10:1,2016-04-06T16:05:00Z,27.1690,-82.9260,22.26,1111122 
COMPS,ioos:station:USF.COMPS:C10:1,2016-04-06T16:35:00Z,27.1690,-82.9260,22.52,1111122 
COMPS,ioos:station:USF.COMPS:C10:1,2016-04-06T17:05:00Z,27.1690,-82.9260,22.59,1111122 
COMPS,ioos:station:USF.COMPS:C10:1,2016-04-06T17:35:00Z,27.1690,-82.9260,22.7,1111122 
COMPS,ioos:station:USF.COMPS:C10:1,2016-04-06T18:05:00Z,27.1690,-82.9260,22.8,1111122 
COMPS,ioos:station:USF.COMPS:C10:1,2016-04-06T18:35:00Z,27.1690,-82.9260,22.78,1111122 
COMPS,ioos:station:USF.COMPS:C10:1,2016-04-06T19:05:00Z,27.1690,-82.9260,22.87,1111122 
COMPS,ioos:station:USF.COMPS:C10:1,2016-04-06T19:35:00Z,27.1690,-82.9260,23.03,1111122 
COMPS,ioos:station:USF.COMPS:C10:1,2016-04-06T20:05:00Z,27.1690,-82.9260,23.1,1111122 
COMPS,ioos:station:USF.COMPS:C10:1,2016-04-06T20:35:00Z,27.1690,-82.9260,23.15,1111122 
COMPS,ioos:station:USF.COMPS:C10:1,2016-04-06T21:05:00Z,27.1690,-82.9260,23.25,1111122 
COMPS,ioos:station:USF.COMPS:C10:1,2016-04-06T21:35:00Z,27.1690,-82.9260,23.19,1111122 
COMPS,ioos:station:USF.COMPS:C10:1,2016-04-06T22:05:00Z,27.1690,-82.9260,23.23,1111122 
COMPS,ioos:station:USF.COMPS:C10:1,2016-04-06T22:35:00Z,27.1690,-82.9260,22.96,1111122 
COMPS,ioos:station:USF.COMPS:C10:1,2016-04-06T23:05:00Z,27.1690,-82.9260,22.96,1111122 
COMPS,ioos:station:USF.COMPS:C10:1,2016-04-06T23:35:00Z,27.1690,-82.9260,22.57,1111122 
COMPS,ioos:station:USF.COMPS:C10:1,2016-04-07T00:05:00Z,27.1690,-82.9260,22.39,1111122 
COMPS,ioos:station:USF.COMPS:C10:1,2016-04-07T00:35:00Z,27.1690,-82.9260,22.37,1111122 
COMPS,ioos:station:USF.COMPS:C10:1,2016-04-07T01:05:00Z,27.1690,-82.9260,22.36,1111122 
COMPS,ioos:station:USF.COMPS:C10:1,2016-04-07T01:35:00Z,27.1690,-82.9260,22.39,1111122 
COMPS,ioos:station:USF.COMPS:C10:1,2016-04-07T02:05:00Z,27.1690,-82.9260,22.36,1111122 
COMPS,ioos:station:USF.COMPS:C10:1,2016-04-07T02:35:00Z,27.1690,-82.9260,22.18,1111122 
COMPS,ioos:station:USF.COMPS:C10:1,2016-04-07T03:05:00Z,27.1690,-82.9260,22.11,1111122 
COMPS,ioos:station:USF.COMPS:C10:1,2016-04-07T03:35:00Z,27.1690,-82.9260,22.08,1111122 
COMPS,ioos:station:USF.COMPS:C10:1,2016-04-07T04:05:00Z,27.1690,-82.9260,22.03,1111122 
COMPS,ioos:station:USF.COMPS:C10:1,2016-04-07T04:35:00Z,27.1690,-82.9260,22.04,1111122 
COMPS,ioos:station:USF.COMPS:C10:1,2016-04-07T05:05:00Z,27.1690,-82.9260,22.07,1111122 
COMPS,ioos:station:USF.COMPS:C10:1,2016-04-07T05:35:00Z,27.1690,-82.9260,22.09,1111122 
COMPS,ioos:station:USF.COMPS:C10:1,2016-04-07T06:05:00Z,27.1690,-82.9260,22.07,1111122 
COMPS,ioos:station:USF.COMPS:C10:1,2016-04-07T06:35:00Z,27.1690,-82.9260,21.99,1111122 
COMPS,ioos:station:USF.COMPS:C10:1,2016-04-07T07:05:00Z,27.1690,-82.9260,21.96,1111122 
COMPS,ioos:station:USF.COMPS:C10:1,2016-04-07T07:35:00Z,27.1690,-82.9260,21.81,1111122 
COMPS,ioos:station:USF.COMPS:C10:1,2016-04-07T08:05:00Z,27.1690,-82.9260,21.78,1111122 
COMPS,ioos:station:USF.COMPS:C10:1,2016-04-07T08:35:00Z,27.1690,-82.9260,21.75,1111122 
COMPS,ioos:station:USF.COMPS:C10:1,2016-04-07T09:05:00Z,27.1690,-82.9260,21.74,1111122 
COMPS,ioos:station:USF.COMPS:C10:1,2016-04-07T09:35:00Z,27.1690,-82.9260,21.73,1111122 
COMPS,ioos:station:USF.COMPS:C10:1,2016-04-07T10:05:00Z,27.1690,-82.9260,21.82,1111122 
COMPS,ioos:station:USF.COMPS:C10:1,2016-04-07T10:35:00Z,27.1690,-82.9260,21.83,1111122 
COMPS,ioos:station:USF.COMPS:C10:1,2016-04-07T11:05:00Z,27.1690,-82.9260,21.8,1111122 
COMPS,ioos:station:USF.COMPS:C10:1,2016-04-07T11:35:00Z,27.1690,-82.9260,21.82,1111122 
COMPS,ioos:station:USF.COMPS:C10:1,2016-04-07T12:05:00Z,27.1690,-82.9260,21.9,1111122 
COMPS,ioos:station:USF.COMPS:C10:1,2016-04-07T12:35:00Z,27.1690,-82.9260,21.94,1111122 
COMPS,ioos:station:USF.COMPS:C10:1,2016-04-07T13:05:00Z,27.1690,-82.9260,21.99,1111122 
COMPS,ioos:station:USF.COMPS:C10:1,2016-04-07T13:35:00Z,27.1690,-82.9260,22.06,1111122 
COMPS,ioos:station:USF.COMPS:C10:1,2016-04-07T14:05:00Z,27.1690,-82.9260,22.07,1111122 
COMPS,ioos:station:USF.COMPS:C10:1,2016-04-07T14:35:00Z,27.1690,-82.9260,22.19,1111122 
COMPS,ioos:station:USF.COMPS:C10:1,2016-04-07T15:05:00Z,27.1690,-82.9260,21.13,1111122 
COMPS,ioos:station:USF.COMPS:C10:1,2016-04-07T15:35:00Z,27.1690,-82.9260,21.41,1111122 
COMPS,ioos:station:USF.COMPS:C10:1,2016-04-07T16:05:00Z,27.1690,-82.9260,21.95,1111122 
COMPS,ioos:station:USF.COMPS:C10:1,2016-04-07T16:35:00Z,27.1690,-82.9260,22.22,1111122 
COMPS,ioos:station:USF.COMPS:C10:1,2016-04-07T17:05:00Z,27.1690,-82.9260,22.15,1111122 
COMPS,ioos:station:USF.COMPS:C10:1,2016-04-07T17:35:00Z,27.1690,-82.9260,21.98,1111122 
COMPS,ioos:station:USF.COMPS:C10:1,2016-04-07T19:05:00Z,27.1690,-82.9260,21.98,1111122 
COMPS,ioos:station:USF.COMPS:C10:1,2016-04-07T19:35:00Z,27.1690,-82.9260,21.97,1111122 
COMPS,ioos:station:USF.COMPS:C10:1,2016-04-07T21:05:00Z,27.1690,-82.9260,22.02,1111122 
COMPS,ioos:station:USF.COMPS:C10:1,2016-04-07T21:35:00Z,27.1690,-82.9260,22.12,1111122 
COMPS,ioos:station:USF.COMPS:C10:1,2016-04-07T22:05:00Z,27.1690,-82.9260,22.14,1111122 
COMPS,ioos:station:USF.COMPS:C10:1,2016-04-07T22:35:00Z,27.1690,-82.9260,22.18,1111122 
COMPS,ioos:station:USF.COMPS:C10:1,2016-04-07T23:05:00Z,27.1690,-82.9260,22.33,1111122 
COMPS,ioos:station:USF.COMPS:C10:1,2016-04-07T23:35:00Z,27.1690,-82.9260,21.95,1111122 